Station FILA2 - Flat Island Light, AK Image indicating link to RSS feed of recent meteorological observations for station FILA2


Conditions at FILA2 as of
(1:00 am AKDT)
0900 GMT on 07/23/2024:
     

Click on the graph icon in the table below to see a time series plot of the last five days of that observation.

5-day plot - Wind Direction Wind Direction (WDIR): NW ( 310 deg true )
5-day plot - Wind Speed Wind Speed (WSPD): 6 kts
5-day plot - Wind Gust Wind Gust (GST): 6 kts
5-day plot - Atmospheric Pressure Atmospheric Pressure (PRES):30.09 in
5-day plot - Pressure Tendency Pressure Tendency (PTDY):+0.02 in ( Rising )
5-day plot - Air Temperature Air Temperature (ATMP): 54.3 °F
5-day plot - Dew Point Dew Point (DEWP): 53.1 °F
5-day plot - Wind Speed at 10 Meters Wind Speed at 10 meters (WSPD10M): 6 kts
5-day plot - Wind Speed at 20 Meters Wind Speed at 20 meters (WSPD20M): 6 kts
5-day plot -  Wind Speed, Wind Gust and Atmospheric Pressure Combined plot of Wind Speed, Gust, and Air Pressure
Continuous Winds
TIME
(AKDT)
5-day plot - Wind Direction WDIR 5-day plot - Wind Speed WSPD
1:00 amWNW ( 299 deg ) 5 kts
12:50 amWNW ( 283 deg ) 4 kts
12:40 amSSW ( 197 deg ) 2 kts
12:30 amSSE ( 151 deg ) 3 kts
12:20 amESE ( 104 deg ) 5 kts
12:10 amESE ( 111 deg ) 2 kts
 
Peak gust during the measurement hour
TIME
(AKDT)
5-day plot - Gust Direction GDR 5-day plot - Gust Speed GST
12:49 amWNW ( 290 deg ) 8 kts
Previous observations
TIME
(AKDT)
5-day plot - Wind Direction
WDIR
 
5-day plot - Wind Speed
WSPD
kts
5-day plot - Wind Gust
GST
kts
5-day plot - Wave Height
WVHT
ft
5-day plot - Dominant Wave Period
DPD
sec
5-day plot - Average Wave Period
APD
sec
5-day plot - Mean Wave Direction
MWD
 
5-day plot - Atmospheric Pressure
PRES
in
5-day plot - Pressure Tendency
PTDY
in
5-day plot - Air Temperature
ATMP
°F
5-day plot - Water Temperature
WTMP
°F
5-day plot - Dew Point
DEWP
°F
5-day plot - Salinity
SAL
psu
5-day plot - Visibility
VIS
nmi
5-day plot - Tide (above MLLW)
TIDE
ft
2024-07-23 12:30 am SE 3 3----30.09- 54.9- 54.1---
2024-07-23 12:00 am NE 3 5----30.08+0.03 55.6- 54.5---
2024-07-22 11:30 pm E 10 12----30.06- 55.8- 54.0---
2024-07-22 11:00 pm E 7 9----30.06+0.02 55.4- 54.3---
2024-07-22 10:30 pmESE 6 7----30.07- 55.9- 54.3---
2024-07-22 10:00 pm E 8 12----30.07+0.04 55.8- 54.3---
2024-07-22 09:30 pm E 12 17----30.06- 56.3- 54.0---
2024-07-22 09:00 pm E 11 15----30.06+0.04 56.8- 54.5---
2024-07-22 08:30 pmENE 10 15----30.05- 57.9- 54.5---
2024-07-22 08:00 pm E 14 19----30.04+0.01 57.7- 54.5---
2024-07-22 07:30 pm E 12 16----30.03- 57.7- 54.3---
2024-07-22 07:00 pm E 11 18----30.03+0.01 58.1- 54.5---
2024-07-22 06:30 pm E 10 12----30.03- 58.3- 54.5---
2024-07-22 06:00 pm E 15 20----30.02+0.01 58.3- 54.3---
2024-07-22 05:30 pm E 13 18----30.03- 58.5- 54.7---
2024-07-22 05:00 pmESE 11 15----30.03+0.02 59.4- 54.9---
2024-07-22 04:30 pm E 9 12----30.02- 59.7- 54.7---
2024-07-22 04:00 pm E 12 16----30.02+0.02 60.4- 54.1---
2024-07-22 03:30 pm E 12 15----30.01- 60.1- 54.5---
2024-07-22 03:00 pm E 13 15----30.01+0.01 62.1- 52.9---
2024-07-22 02:30 pm E 12 15----30.01- 61.5- 52.9---
2024-07-22 02:00 pm E 13 18----30.01+0.00 61.3- 52.7---
2024-07-22 01:30 pmESE 10 14----30.01- 63.9- 52.0---
2024-07-22 01:00 pm SE 2 4----30.00-0.01 63.1- 51.8---
2024-07-22 12:30 pm S 13 16----29.98- 57.9- 51.8---
2024-07-22 12:00 pm S 15 18----30.00-0.02 54.3- 52.3---
2024-07-22 11:30 amSSW 10 16----30.00- 57.4- 52.0---
2024-07-22 11:00 am S 12 17----30.00-0.01 55.8- 51.6---
2024-07-22 10:30 amSSW 10 15----30.01- 53.2- 51.8---
2024-07-22 10:00 am S 11 12----30.01+0.00 52.9- 51.3---
2024-07-22 09:30 amSSW 8 11----30.01- 56.5- 51.8---
2024-07-22 09:00 amSSW 7 11----30.01+0.00 56.5- 52.0---
2024-07-22 08:30 am S 9 11----30.01- 55.9- 52.2---
2024-07-22 08:00 amSSW 9 13----30.02+0.00 55.2- 51.6---
2024-07-22 07:30 am S 11 14----30.01- 54.5- 51.6---
2024-07-22 07:00 amSSW 10 15----30.01-0.01 54.3- 51.6---
2024-07-22 06:30 amSSW 8 12----30.01- 54.5- 51.4---
2024-07-22 06:00 am S 8 11----30.01-0.01 55.2- 51.3---
2024-07-22 05:30 amSSW 6 8----30.01- 52.3- 51.6---
2024-07-22 05:00 amSSW 8 10----30.02-0.01 53.2- 51.8---
2024-07-22 04:30 am S 9 12----30.03- 53.1- 51.8---
2024-07-22 04:00 amSSW 8 11----30.02+0.00 56.5- 51.8---
2024-07-22 03:30 am S 7 9----30.03- 56.7- 52.2---
2024-07-22 03:00 am S 9 11----30.03+0.00 55.8- 52.0---
2024-07-22 02:30 am S 7 9----30.03- 54.5- 51.1---
2024-07-22 02:00 am- 0 2----30.03-0.01 58.1- 50.7---
2024-07-22 01:30 am S 3 4----30.03- 55.2- 51.6---
2024-07-22 01:00 amESE 6 7----30.02-0.02 55.8- 51.3---